This is the latest recevied weather packets stored in our database for station/object W5ITZ. If no packets are shown the sender has not sent any weather packets the latest 10 day(s).
| Time | Temp. | Humidity | Pressure | Rain* | Wind** | Luminosity | Snow |
|---|---|---|---|---|---|---|---|
| 1777676494 | 17.78° C | 96% | 1010.6 hPa | 13.72 mm | - | 42 W/m² | - |
| 1777676191 | 17.78° C | 96% | 1010.8 hPa | 0 mm | - | 2 W/m² | - |
| 1777675887 | 17.78° C | 96% | 1009.7 hPa | 0 mm | - | 2 W/m² | - |
| 1777675584 | 17.78° C | 96% | 1007.8 hPa | 0 mm | - | 12 W/m² | - |
| 1777675281 | 17.78° C | 96% | 1007.9 hPa | 0 mm | - | 23 W/m² | - |
| 1777674978 | 17.78° C | 96% | 1007.3 hPa | 0 mm | - | 44 W/m² | - |
| 1777674675 | 17.78° C | 96% | 1007.7 hPa | 1.27 mm | - | 28 W/m² | - |
| 1777674386 | 17.78° C | 96% | 1008.6 hPa | 1.27 mm | - | 11 W/m² | - |
| 1777674068 | 17.78° C | 96% | 1008.5 hPa | 1.78 mm | - | 14 W/m² | - |
| 1777673764 | 17.78° C | 96% | 1008.2 hPa | 1.78 mm | - | 80 W/m² | - |
| 1777673461 | 17.78° C | 96% | 1008.6 hPa | 0 mm | - | 84 W/m² | - |
| 1777673159 | 17.78° C | 96% | 1009.2 hPa | 0 mm | - | 25 W/m² | - |
| 1777672856 | 17.78° C | 95% | 1009 hPa | 1.27 mm | - | 31 W/m² | - |
| 1777672552 | 17.78° C | 96% | 1008.9 hPa | 1.27 mm | - | 19 W/m² | - |
| 1777672247 | 17.78° C | 96% | 1008.7 hPa | 1.78 mm | - | 26 W/m² | - |
| 1777671943 | 17.78° C | 95% | 1008.9 hPa | 1.78 mm | - | 26 W/m² | - |
| 1777671639 | 17.78° C | 95% | 1008.7 hPa | 1.27 mm | - | 14 W/m² | - |
| 1777671336 | 17.78° C | 95% | 1009.1 hPa | 6.1 mm | - | 38 W/m² | - |
| 1777671032 | 17.78° C | 95% | 1009.2 hPa | 4.83 mm | - | 39 W/m² | - |
| 1777670729 | 17.78° C | 95% | 1009.3 hPa | 0 mm | - | 30 W/m² | - |
| 1777670426 | 17.78° C | 95% | 1009.2 hPa | 0 mm | - | 28 W/m² | - |
| 1777670122 | 17.78° C | 95% | 1008.9 hPa | 0 mm | - | 46 W/m² | - |
| 1777669821 | 18.33° C | 95% | 1008.8 hPa | 0 mm | - | 80 W/m² | - |
| 1777669516 | 18.33° C | 96% | 1008.9 hPa | 0 mm | - | 97 W/m² | - |
| 1777669213 | 18.33° C | 96% | 1009.1 hPa | 0 mm | - | 140 W/m² | - |
* Rain latest hour (hover to see other rain measurements)
** Current wind speed in m/s (hover to see current wind gust speed)